VIA022 MMSM-SKBO

Flight info

Callsign VIA022
Flight time 3h 52m
Altitude 37000
Route ILETO1Q ILETO UT109 TILOB DCT RETOM DCT GABEN UA552 OMISO DCT TUKOR DCT ISEBA UL423 ILTUR UQ122 TIRTO TIRTO5W
Aircraft A333/H-SDE3GHIJ2J3J5M1RVWXY/LB2D1

Departure

Time 2026-04-25 18:04
Airport Felipe Ángeles International Airport (MMSM)

Arrival

Time 2026-04-25 21:57
Airport El Dorado International Airport (SKBO)
Time Latitude Longitude Altitude Speed Heading
2026-04-25 17:28 19.73716 -99.01878 7381 ft 0 kts 319°
2026-04-25 17:47 19.73714 -99.01875 7381 ft 2 kts 319°
2026-04-25 17:47 19.73703 -99.01865 7381 ft 2 kts 319°
2026-04-25 17:48 19.73676 -99.01842 7381 ft 2 kts 336°
2026-04-25 17:48 19.73660 -99.01838 7381 ft 2 kts 356°
2026-04-25 17:48 19.73644 -99.01839 7381 ft 2 kts 13°
2026-04-25 17:49 19.73628 -99.01845 7381 ft 2 kts 33°
2026-04-25 17:49 19.73616 -99.01856 7381 ft 0 kts 51°
2026-04-25 17:49 19.73613 -99.01859 7381 ft 0 kts 52°
2026-04-25 17:49 19.73613 -99.01860 7381 ft 0 kts 52°
2026-04-25 17:50 19.73613 -99.01859 7381 ft 0 kts 52°
2026-04-25 17:51 19.73616 -99.01856 7381 ft 2 kts 52°
2026-04-25 17:51 19.73643 -99.01820 7381 ft 7 kts 50°
2026-04-25 17:52 19.73684 -99.01769 7381 ft 9 kts 50°
2026-04-25 17:52 19.73716 -99.01730 7381 ft 9 kts 49°
2026-04-25 17:52 19.73787 -99.01644 7381 ft 11 kts 49°
2026-04-25 17:52 19.73847 -99.01573 7381 ft 12 kts 48°
2026-04-25 17:53 19.73931 -99.01547 7381 ft 13 kts 335°
2026-04-25 17:53 19.74022 -99.01619 7381 ft 15 kts 319°
2026-04-25 17:53 19.74116 -99.01705 7380 ft 16 kts 319°
2026-04-25 17:53 19.74148 -99.01735 7380 ft 0 kts 318°
2026-04-25 17:54 19.74150 -99.01737 7380 ft 2 kts 319°
2026-04-25 17:54 19.74184 -99.01768 7380 ft 7 kts 320°
2026-04-25 17:54 19.74239 -99.01814 7381 ft 9 kts 318°
2026-04-25 17:55 19.74302 -99.01874 7381 ft 11 kts 319°
2026-04-25 17:55 19.74373 -99.01939 7381 ft 12 kts 319°
2026-04-25 17:55 19.74452 -99.02010 7381 ft 13 kts 319°
2026-04-25 17:55 19.74530 -99.02081 7381 ft 11 kts 318°
2026-04-25 17:56 19.74548 -99.02168 7381 ft 12 kts 244°
2026-04-25 17:56 19.74484 -99.02255 7381 ft 14 kts 229°
2026-04-25 17:56 19.74406 -99.02351 7381 ft 16 kts 230°
2026-04-25 17:56 19.74351 -99.02420 7381 ft 5 kts 229°
2026-04-25 17:57 19.74316 -99.02463 7380 ft 7 kts 229°
2026-04-25 17:57 19.74275 -99.02512 7380 ft 9 kts 229°
2026-04-25 17:57 19.74225 -99.02573 7380 ft 11 kts 229°
2026-04-25 17:57 19.74185 -99.02621 7380 ft 12 kts 229°
2026-04-25 17:58 19.74092 -99.02736 7379 ft 15 kts 229°
2026-04-25 17:58 19.74013 -99.02832 7378 ft 16 kts 229°
2026-04-25 17:58 19.73927 -99.02937 7378 ft 18 kts 229°
2026-04-25 17:58 19.73833 -99.03053 7378 ft 19 kts 229°
2026-04-25 17:59 19.73730 -99.03178 7377 ft 18 kts 229°
2026-04-25 17:59 19.73641 -99.03288 7378 ft 18 kts 230°
2026-04-25 17:59 19.73542 -99.03407 7378 ft 19 kts 228°
2026-04-25 17:59 19.73439 -99.03533 7379 ft 20 kts 229°
2026-04-25 18:00 19.73334 -99.03661 7379 ft 21 kts 229°
2026-04-25 18:00 19.73257 -99.03776 7380 ft 16 kts 268°
2026-04-25 18:00 19.73303 -99.03852 7380 ft 0 kts 315°
2026-04-25 18:02 19.73329 -99.03879 7380 ft 11 kts 316°
2026-04-25 18:03 19.73412 -99.03930 7380 ft 14 kts
2026-04-25 18:03 19.73482 -99.03874 7380 ft 0 kts 46°
2026-04-25 18:03 19.73483 -99.03873 7380 ft 2 kts 46°
2026-04-25 18:04 19.73667 -99.03650 7379 ft 77 kts 49°
2026-04-25 18:04 19.74239 -99.02950 7379 ft 151 kts 49°
2026-04-25 18:04 19.75086 -99.01895 7581 ft 192 kts 50°
2026-04-25 18:04 19.75937 -99.00842 8289 ft 172 kts 47°
2026-04-25 18:05 19.76819 -98.99776 8583 ft 176 kts 50°
2026-04-25 18:05 19.77660 -98.98588 8971 ft 200 kts 54°
2026-04-25 18:05 19.78711 -98.97347 9498 ft 224 kts 39°
2026-04-25 18:05 19.79871 -98.96069 9912 ft 233 kts 49°
2026-04-25 18:06 19.80884 -98.94428 10139 ft 254 kts 72°
2026-04-25 18:06 19.80986 -98.92368 10367 ft 274 kts 103°
2026-04-25 18:06 19.79981 -98.90417 10870 ft 282 kts 136°
2026-04-25 18:06 19.78157 -98.89280 11440 ft 284 kts 167°
2026-04-25 18:07 19.76003 -98.89273 11999 ft 286 kts 198°
2026-04-25 18:07 19.74135 -98.90425 12553 ft 286 kts 229°
2026-04-25 18:07 19.73080 -98.92337 13106 ft 285 kts 254°
2026-04-25 18:07 19.72351 -98.94395 13614 ft 289 kts 242°
2026-04-25 18:08 19.71018 -98.96107 14134 ft 294 kts 227°
2026-04-25 18:08 19.69486 -98.97668 14649 ft 298 kts 225°
2026-04-25 18:08 19.67846 -98.99242 15142 ft 302 kts 224°
2026-04-25 18:08 19.66200 -99.00800 15657 ft 304 kts 224°
2026-04-25 18:09 19.64484 -99.02416 16172 ft 308 kts 224°
2026-04-25 18:09 19.62839 -99.03965 16659 ft 310 kts 224°
2026-04-25 18:09 19.61138 -99.05443 17113 ft 314 kts 213°
2026-04-25 18:09 19.59672 -99.06130 17346 ft 321 kts 197°
2026-04-25 18:10 19.56337 -99.06392 17592 ft 341 kts 183°
2026-04-25 18:10 19.53891 -99.06571 18016 ft 345 kts 185°
2026-04-25 18:10 19.51376 -99.06773 18517 ft 347 kts 186°
2026-04-25 18:10 19.48856 -99.06985 18998 ft 350 kts 186°
2026-04-25 18:11 19.46371 -99.07134 19442 ft 354 kts 178°
2026-04-25 18:11 19.43964 -99.06564 19865 ft 356 kts 156°
2026-04-25 18:11 19.41903 -99.05115 20344 ft 355 kts 135°
2026-04-25 18:11 19.40430 -99.02992 20553 ft 362 kts 115°
2026-04-25 18:12 19.39700 -99.00188 20637 ft 372 kts 92°
2026-04-25 18:12 19.39975 -98.97337 20756 ft 379 kts 72°
2026-04-25 18:12 19.41101 -98.94712 20888 ft 387 kts 62°
2026-04-25 18:12 19.41995 -98.91706 21084 ft 400 kts 79°
2026-04-25 18:13 19.42600 -98.88515 21255 ft 409 kts 76°
2026-04-25 18:13 19.43249 -98.85277 21409 ft 418 kts 77°
2026-04-25 18:13 19.43926 -98.81933 21566 ft 426 kts 76°
2026-04-25 18:14 19.46079 -98.75427 22059 ft 434 kts 68°
2026-04-25 18:14 19.47260 -98.72096 22406 ft 437 kts 70°
2026-04-25 18:14 19.47826 -98.68635 22706 ft 443 kts 88°
2026-04-25 18:14 19.47617 -98.65039 22966 ft 447 kts 91°
2026-04-25 18:15 19.47486 -98.61639 23237 ft 450 kts 91°
2026-04-25 18:15 19.47332 -98.57965 23533 ft 452 kts 91°
2026-04-25 18:15 19.47178 -98.54300 23832 ft 454 kts 91°
2026-04-25 18:15 19.47023 -98.50615 24099 ft 457 kts 91°
2026-04-25 18:16 19.46868 -98.46909 24371 ft 459 kts 91°
2026-04-25 18:16 19.46711 -98.43195 24615 ft 462 kts 91°
2026-04-25 18:16 19.45352 -98.35941 25123 ft 472 kts 116°
2026-04-25 18:17 19.43553 -98.32811 25365 ft 474 kts 121°
2026-04-25 18:17 19.41698 -98.29520 25639 ft 476 kts 121°
2026-04-25 18:17 19.39858 -98.26228 25917 ft 478 kts 120°
2026-04-25 18:17 19.37973 -98.22846 26146 ft 481 kts 120°
2026-04-25 18:18 19.36108 -98.19497 26411 ft 483 kts 120°
2026-04-25 18:18 19.34209 -98.16090 26659 ft 485 kts 120°
2026-04-25 18:18 19.32272 -98.12614 26907 ft 487 kts 120°
2026-04-25 18:18 19.30362 -98.09190 27128 ft 490 kts 120°
2026-04-25 18:19 19.28466 -98.05794 27380 ft 492 kts 120°
2026-04-25 18:19 19.26746 -98.02190 27549 ft 493 kts 109°
2026-04-25 18:19 19.26004 -97.98322 27755 ft 492 kts 92°
2026-04-25 18:19 19.25871 -97.94331 28041 ft 493 kts 92°
2026-04-25 18:20 19.25653 -97.90367 28227 ft 496 kts 92°
2026-04-25 18:20 19.25409 -97.86270 28445 ft 498 kts 92°
2026-04-25 18:20 19.25161 -97.82228 28679 ft 499 kts 92°
2026-04-25 18:20 19.24905 -97.78082 28883 ft 502 kts 92°
2026-04-25 18:21 19.24651 -97.74001 29061 ft 504 kts 92°
2026-04-25 18:21 19.24397 -97.69943 29276 ft 505 kts 92°
2026-04-25 18:21 19.24135 -97.65752 29480 ft 506 kts 92°
2026-04-25 18:21 19.23872 -97.61588 29776 ft 506 kts 92°
2026-04-25 18:22 19.23610 -97.57436 30082 ft 505 kts 92°
2026-04-25 18:22 19.23443 -97.54807 30296 ft 505 kts 92°
2026-04-25 18:22 19.23097 -97.49362 30730 ft 504 kts 92°
2026-04-25 18:22 19.22837 -97.45274 31056 ft 503 kts 92°
2026-04-25 18:23 19.22573 -97.41173 31391 ft 502 kts 92°
2026-04-25 18:23 19.22323 -97.37273 31668 ft 501 kts 92°
2026-04-25 18:23 19.21939 -97.33284 31940 ft 502 kts 101°
2026-04-25 18:23 19.20642 -97.29488 32172 ft 504 kts 118°
2026-04-25 18:24 19.18511 -97.26022 32445 ft 503 kts 124°
2026-04-25 18:24 19.16424 -97.22632 32739 ft 503 kts 124°
2026-04-25 18:24 19.14351 -97.19247 33063 ft 501 kts 123°
2026-04-25 18:24 19.12301 -97.15891 33395 ft 500 kts 123°
2026-04-25 18:25 19.10295 -97.12607 33716 ft 500 kts 123°
2026-04-25 18:25 19.08326 -97.09386 33989 ft 500 kts 123°
2026-04-25 18:25 19.06360 -97.06170 34302 ft 499 kts 123°
2026-04-25 18:25 19.04392 -97.02952 34596 ft 498 kts 123°
2026-04-25 18:26 19.02445 -96.99771 34856 ft 498 kts 123°
2026-04-25 18:26 19.00482 -96.96564 35133 ft 498 kts 123°
2026-04-25 18:26 18.98532 -96.93382 35421 ft 497 kts 123°
2026-04-25 18:26 18.96602 -96.90233 35700 ft 497 kts 124°
2026-04-25 18:27 18.94688 -96.87112 35979 ft 496 kts 123°
2026-04-25 18:27 18.92757 -96.83965 36200 ft 496 kts 123°
2026-04-25 18:27 18.90856 -96.80868 36427 ft 496 kts 123°
2026-04-25 18:27 18.88977 -96.77809 36663 ft 495 kts 123°
2026-04-25 18:28 18.87074 -96.74713 36866 ft 495 kts 123°
2026-04-25 18:28 18.83274 -96.68533 36914 ft 501 kts 123°
2026-04-25 18:29 18.77515 -96.59178 36859 ft 507 kts 123°
2026-04-25 18:30 18.69841 -96.46736 36807 ft 499 kts 123°
2026-04-25 18:30 18.66053 -96.40605 36811 ft 499 kts 123°
2026-04-25 18:31 18.62226 -96.34414 36791 ft 498 kts 124°
2026-04-25 18:31 18.58425 -96.28272 36759 ft 499 kts 124°
2026-04-25 18:32 18.54616 -96.22124 36753 ft 499 kts 123°
2026-04-25 18:32 18.50805 -96.15979 36762 ft 499 kts 123°
2026-04-25 18:33 18.46987 -96.09827 36757 ft 499 kts 123°
2026-04-25 18:33 18.43193 -96.03720 36742 ft 498 kts 124°
2026-04-25 18:34 18.39397 -95.97617 36734 ft 497 kts 124°
2026-04-25 18:34 18.35580 -95.91484 36728 ft 498 kts 124°
2026-04-25 18:35 18.31775 -95.85377 36735 ft 497 kts 124°
2026-04-25 18:35 18.27874 -95.79331 36734 ft 498 kts 124°
2026-04-25 18:36 18.23964 -95.73307 36741 ft 497 kts 125°
2026-04-25 18:36 18.20038 -95.67263 36744 ft 496 kts 125°
2026-04-25 18:37 18.16146 -95.61276 36755 ft 496 kts 125°
2026-04-25 18:37 18.12238 -95.55272 36749 ft 496 kts 125°
2026-04-25 18:38 18.08326 -95.49266 36748 ft 496 kts 124°
2026-04-25 18:38 18.04407 -95.43254 36744 ft 495 kts 124°
2026-04-25 18:39 18.00522 -95.37300 36754 ft 495 kts 125°
2026-04-25 18:39 17.96594 -95.31287 36745 ft 495 kts 125°
2026-04-25 18:40 17.92682 -95.25303 36741 ft 495 kts 125°
2026-04-25 18:40 17.88765 -95.19317 36755 ft 494 kts 125°
2026-04-25 18:41 17.84862 -95.13357 36754 ft 494 kts 125°
2026-04-25 18:41 17.80944 -95.07381 36757 ft 494 kts 125°
2026-04-25 18:42 17.77701 -95.02437 36775 ft 494 kts 125°
2026-04-25 18:42 17.73144 -94.95497 36782 ft 493 kts 125°
2026-04-25 18:43 17.69222 -94.89531 36782 ft 493 kts 125°
2026-04-25 18:43 17.65327 -94.83611 36774 ft 493 kts 125°
2026-04-25 18:44 17.61399 -94.77645 36784 ft 494 kts 125°
2026-04-25 18:44 17.57483 -94.71702 36790 ft 494 kts 125°
2026-04-25 18:45 17.53585 -94.65793 36795 ft 494 kts 125°
2026-04-25 18:45 17.49649 -94.59832 36803 ft 494 kts 125°
2026-04-25 18:46 17.45734 -94.53907 36812 ft 493 kts 125°
2026-04-25 18:46 17.41798 -94.47955 36826 ft 493 kts 125°
2026-04-25 18:47 17.37895 -94.42059 36820 ft 492 kts 125°
2026-04-25 18:47 17.33981 -94.36150 36814 ft 493 kts 125°
2026-04-25 18:48 17.30035 -94.30200 36818 ft 493 kts 126°
2026-04-25 18:48 17.26096 -94.24266 36818 ft 493 kts 126°
2026-04-25 18:49 17.22149 -94.18323 36863 ft 492 kts 126°
2026-04-25 18:49 17.18241 -94.12445 36908 ft 492 kts 126°
2026-04-25 18:50 17.14312 -94.06541 36955 ft 492 kts 126°
2026-04-25 18:50 17.10393 -94.00658 37003 ft 492 kts 126°
2026-04-25 18:51 17.07087 -93.95695 37019 ft 492 kts 126°
2026-04-25 18:51 17.02492 -93.88808 37025 ft 493 kts 126°
2026-04-25 18:52 16.98562 -93.82923 37018 ft 493 kts 126°
2026-04-25 18:52 16.94615 -93.77016 37000 ft 493 kts 126°
2026-04-25 18:53 16.90641 -93.71074 36998 ft 492 kts 126°
2026-04-25 18:53 16.86708 -93.65199 36999 ft 492 kts 126°
2026-04-25 18:54 16.80763 -93.56327 37008 ft 491 kts 126°
2026-04-25 18:55 16.76815 -93.50441 37002 ft 492 kts 126°
2026-04-25 18:55 16.72843 -93.44525 37013 ft 491 kts 126°
2026-04-25 18:56 16.68908 -93.38669 37024 ft 492 kts 126°
2026-04-25 18:56 16.64931 -93.32755 37028 ft 492 kts 126°
2026-04-25 18:57 16.60894 -93.26758 37039 ft 492 kts 126°
2026-04-25 18:57 16.56936 -93.20882 37035 ft 492 kts 126°
2026-04-25 18:58 16.52963 -93.14989 37019 ft 491 kts 126°
2026-04-25 18:58 16.47039 -93.06211 36981 ft 491 kts 126°
2026-04-25 18:59 16.39138 -92.94521 36960 ft 491 kts 126°
2026-04-25 19:00 16.33203 -92.85751 36982 ft 491 kts 126°
2026-04-25 19:01 16.27258 -92.76979 36983 ft 490 kts 126°
2026-04-25 19:01 16.23262 -92.71087 36980 ft 490 kts 127°
2026-04-25 19:02 16.17302 -92.62311 36997 ft 490 kts 127°
2026-04-25 19:03 16.11968 -92.54465 36993 ft 489 kts 127°
2026-04-25 19:03 16.07330 -92.47649 36988 ft 490 kts 126°
2026-04-25 19:04 16.01385 -92.38921 37006 ft 490 kts 127°
2026-04-25 19:05 15.93400 -92.27216 36985 ft 489 kts 127°
2026-04-25 19:06 15.89410 -92.21374 36985 ft 489 kts 127°
2026-04-25 19:06 15.83246 -92.12357 36999 ft 488 kts 127°
2026-04-25 19:07 15.77172 -92.03482 37013 ft 488 kts 127°
2026-04-25 19:08 15.70964 -91.94443 37061 ft 487 kts 129°
2026-04-25 19:09 15.62522 -91.83879 37157 ft 486 kts 131°
2026-04-25 19:10 15.54948 -91.74413 37207 ft 485 kts 131°
2026-04-25 19:10 15.50422 -91.68763 37306 ft 486 kts 131°
2026-04-25 19:11 15.45879 -91.63095 37348 ft 485 kts 131°
2026-04-25 19:11 15.41358 -91.57458 37362 ft 484 kts 131°
2026-04-25 19:12 15.36837 -91.51826 37396 ft 484 kts 131°
2026-04-25 19:12 15.32430 -91.46339 37364 ft 485 kts 131°
2026-04-25 19:13 15.28340 -91.40227 37366 ft 483 kts 125°
2026-04-25 19:13 15.24339 -91.34112 37243 ft 483 kts 126°
2026-04-25 19:14 15.20410 -91.28133 37275 ft 482 kts 126°
2026-04-25 19:14 15.16370 -91.21991 37264 ft 483 kts 126°
2026-04-25 19:15 15.12359 -91.15900 37266 ft 484 kts 126°
2026-04-25 19:15 15.08507 -91.10053 37254 ft 484 kts 126°
2026-04-25 19:16 15.04602 -91.04131 37290 ft 481 kts 126°
2026-04-25 19:16 15.00695 -90.98211 37299 ft 481 kts 126°
2026-04-25 19:17 14.96780 -90.92283 37292 ft 480 kts 126°
2026-04-25 19:17 14.92832 -90.86309 37284 ft 482 kts 126°
2026-04-25 19:18 14.88868 -90.80315 37260 ft 482 kts 126°
2026-04-25 19:18 14.84763 -90.74113 37182 ft 482 kts 126°
2026-04-25 19:19 14.80814 -90.68152 37187 ft 481 kts 126°
2026-04-25 19:19 14.76889 -90.62231 37165 ft 481 kts 126°
2026-04-25 19:20 14.73011 -90.56387 37137 ft 481 kts 126°
2026-04-25 19:20 14.69170 -90.50600 37140 ft 482 kts 126°
2026-04-25 19:21 14.65342 -90.44838 37141 ft 481 kts 126°
2026-04-25 19:21 14.59493 -90.36042 37161 ft 481 kts 126°
2026-04-25 19:22 14.55591 -90.30180 37168 ft 482 kts 126°
2026-04-25 19:23 14.49744 -90.21403 37199 ft 482 kts 126°
2026-04-25 19:23 14.43854 -90.12573 37144 ft 480 kts 126°
2026-04-25 19:24 14.39819 -90.06527 37101 ft 481 kts 126°
2026-04-25 19:25 14.31955 -89.94759 37052 ft 481 kts 126°
2026-04-25 19:25 14.28137 -89.89052 37027 ft 481 kts 126°
2026-04-25 19:26 14.24335 -89.83373 37010 ft 480 kts 126°
2026-04-25 19:26 14.20528 -89.77689 36994 ft 480 kts 126°
2026-04-25 19:27 14.17358 -89.72961 36983 ft 479 kts 126°
2026-04-25 19:27 14.12917 -89.66340 36972 ft 479 kts 126°
2026-04-25 19:28 14.09088 -89.60635 36974 ft 480 kts 126°
2026-04-25 19:28 14.05288 -89.54978 36967 ft 479 kts 126°
2026-04-25 19:29 14.01476 -89.49307 36962 ft 478 kts 126°
2026-04-25 19:29 13.97671 -89.43652 36965 ft 478 kts 126°
2026-04-25 19:30 13.93860 -89.37989 36967 ft 479 kts 126°
2026-04-25 19:30 13.90066 -89.32356 36985 ft 479 kts 126°
2026-04-25 19:31 13.86237 -89.26675 37010 ft 479 kts 126°
2026-04-25 19:31 13.82421 -89.21018 37035 ft 478 kts 126°
2026-04-25 19:32 13.78610 -89.15371 37043 ft 479 kts 126°
2026-04-25 19:32 13.75412 -89.10635 37028 ft 479 kts 126°
2026-04-25 19:33 13.70960 -89.04047 36999 ft 480 kts 126°
2026-04-25 19:33 13.67111 -88.98355 36953 ft 479 kts 126°
2026-04-25 19:34 13.63291 -88.92711 36950 ft 480 kts 126°
2026-04-25 19:34 13.59472 -88.87071 36923 ft 480 kts 126°
2026-04-25 19:35 13.55624 -88.81393 36908 ft 479 kts 126°
2026-04-25 19:35 13.51776 -88.75716 36896 ft 480 kts 126°
2026-04-25 19:36 13.47949 -88.70075 36919 ft 480 kts 126°
2026-04-25 19:36 13.44121 -88.64438 36948 ft 481 kts 126°
2026-04-25 19:37 13.40278 -88.58781 36963 ft 481 kts 126°
2026-04-25 19:37 13.36437 -88.53130 36979 ft 480 kts 126°
2026-04-25 19:38 13.32575 -88.47453 36953 ft 481 kts 126°
2026-04-25 19:38 13.28731 -88.41805 36936 ft 480 kts 126°
2026-04-25 19:39 13.24812 -88.36052 36930 ft 480 kts 126°
2026-04-25 19:39 13.20841 -88.30225 36939 ft 480 kts 126°
2026-04-25 19:40 13.16778 -88.24268 36939 ft 480 kts 126°
2026-04-25 19:40 13.12711 -88.18309 36915 ft 481 kts 126°
2026-04-25 19:41 13.08577 -88.12256 36893 ft 479 kts 127°
2026-04-25 19:41 13.05221 -88.07344 36882 ft 479 kts 126°
2026-04-25 19:42 13.00469 -88.00396 36862 ft 479 kts 126°
2026-04-25 19:42 12.96386 -87.94428 36860 ft 479 kts 126°
2026-04-25 19:43 12.92413 -87.88627 36862 ft 480 kts 126°
2026-04-25 19:43 12.88367 -87.82722 36858 ft 480 kts 126°
2026-04-25 19:44 12.84341 -87.76643 36862 ft 480 kts 125°
2026-04-25 19:44 12.80394 -87.70642 36857 ft 480 kts 125°
2026-04-25 19:45 12.76503 -87.64735 36850 ft 480 kts 125°
2026-04-25 19:45 12.72550 -87.58736 36851 ft 480 kts 125°
2026-04-25 19:46 12.68633 -87.52796 36854 ft 480 kts 125°
2026-04-25 19:46 12.64645 -87.46754 36859 ft 481 kts 125°
2026-04-25 19:47 12.60747 -87.40850 36866 ft 480 kts 125°
2026-04-25 19:47 12.56857 -87.34962 36869 ft 481 kts 126°
2026-04-25 19:48 12.52942 -87.29040 36860 ft 480 kts 126°
2026-04-25 19:48 12.48979 -87.23051 36864 ft 481 kts 126°
2026-04-25 19:49 12.45738 -87.18153 36865 ft 481 kts 126°
2026-04-25 19:49 12.41135 -87.11204 36861 ft 482 kts 126°
2026-04-25 19:50 12.35284 -87.02377 36849 ft 481 kts 126°
2026-04-25 19:51 12.31386 -86.96504 36851 ft 481 kts 126°
2026-04-25 19:51 12.27474 -86.90610 36848 ft 482 kts 126°
2026-04-25 19:52 12.23534 -86.84679 36851 ft 483 kts 126°
2026-04-25 19:52 12.19601 -86.78762 36854 ft 484 kts 126°
2026-04-25 19:53 12.15715 -86.72920 36854 ft 484 kts 126°
2026-04-25 19:53 12.11804 -86.67042 36853 ft 483 kts 126°
2026-04-25 19:54 12.07936 -86.61234 36859 ft 483 kts 126°
2026-04-25 19:54 12.04064 -86.55422 36851 ft 485 kts 126°
2026-04-25 19:55 12.00203 -86.49631 36859 ft 485 kts 126°
2026-04-25 19:55 11.96338 -86.43837 36878 ft 485 kts 126°
2026-04-25 19:56 11.92460 -86.38026 36888 ft 484 kts 126°
2026-04-25 19:56 11.88598 -86.32245 36888 ft 485 kts 126°
2026-04-25 19:57 11.84702 -86.26414 36895 ft 485 kts 126°
2026-04-25 19:57 11.80900 -86.20729 36887 ft 485 kts 126°
2026-04-25 19:58 11.77066 -86.14998 36874 ft 484 kts 126°
2026-04-25 19:58 11.73213 -86.09243 36870 ft 485 kts 126°
2026-04-25 19:59 11.69274 -86.03361 36860 ft 486 kts 126°
2026-04-25 19:59 11.65292 -85.97421 36853 ft 485 kts 126°
2026-04-25 20:00 11.61349 -85.91541 36853 ft 485 kts 126°
2026-04-25 20:00 11.57367 -85.85607 36848 ft 484 kts 126°
2026-04-25 20:01 11.51398 -85.76718 36842 ft 485 kts 126°
2026-04-25 20:01 11.47362 -85.70712 36843 ft 485 kts 126°
2026-04-25 20:02 11.43286 -85.64649 36846 ft 485 kts 126°
2026-04-25 20:02 11.39223 -85.58611 36850 ft 484 kts 126°
2026-04-25 20:03 11.35123 -85.52521 36849 ft 484 kts 126°
2026-04-25 20:03 11.31027 -85.46439 36840 ft 483 kts 126°
2026-04-25 20:04 11.26990 -85.40450 36840 ft 483 kts 126°
2026-04-25 20:04 11.22962 -85.34476 36842 ft 483 kts 127°
2026-04-25 20:05 11.18870 -85.28413 36854 ft 483 kts 126°
2026-04-25 20:05 11.14852 -85.22461 36854 ft 483 kts 127°
2026-04-25 20:06 11.10811 -85.16480 36856 ft 482 kts 127°
2026-04-25 20:06 11.06802 -85.10549 36846 ft 482 kts 127°
2026-04-25 20:07 11.02807 -85.04642 36830 ft 481 kts 127°
2026-04-25 20:07 10.98839 -84.98779 36827 ft 481 kts 127°
2026-04-25 20:08 10.94937 -84.93015 36834 ft 482 kts 127°
2026-04-25 20:08 10.91002 -84.87206 36848 ft 482 kts 127°
2026-04-25 20:09 10.87164 -84.81542 36836 ft 481 kts 127°
2026-04-25 20:09 10.83215 -84.75719 36836 ft 481 kts 127°
2026-04-25 20:10 10.79253 -84.69881 36836 ft 481 kts 127°
2026-04-25 20:10 10.75278 -84.64026 36837 ft 482 kts 127°
2026-04-25 20:11 10.71322 -84.58202 36854 ft 482 kts 127°
2026-04-25 20:11 10.67328 -84.52325 36862 ft 482 kts 127°
2026-04-25 20:12 10.63339 -84.46457 36860 ft 482 kts 127°
2026-04-25 20:12 10.59977 -84.41516 36870 ft 481 kts 127°
2026-04-25 20:13 10.55346 -84.34712 36880 ft 481 kts 127°
2026-04-25 20:13 10.51241 -84.28684 36879 ft 481 kts 127°
2026-04-25 20:14 10.47224 -84.22791 36916 ft 481 kts 127°
2026-04-25 20:14 10.43206 -84.16896 36961 ft 481 kts 127°
2026-04-25 20:15 10.39183 -84.11000 36973 ft 481 kts 127°
2026-04-25 20:15 10.35137 -84.05071 36995 ft 481 kts 127°
2026-04-25 20:16 10.31131 -83.99206 36994 ft 481 kts 127°
2026-04-25 20:16 10.27178 -83.93420 37002 ft 481 kts 127°
2026-04-25 20:17 10.23153 -83.87530 36999 ft 481 kts 127°
2026-04-25 20:17 10.19229 -83.81792 37024 ft 480 kts 127°
2026-04-25 20:18 10.15215 -83.75927 37053 ft 480 kts 127°
2026-04-25 20:18 10.11195 -83.70056 37103 ft 480 kts 127°
2026-04-25 20:19 10.07083 -83.64052 37099 ft 479 kts 127°
2026-04-25 20:19 10.03087 -83.58221 37092 ft 478 kts 127°
2026-04-25 20:20 9.98955 -83.52195 37008 ft 479 kts 127°
2026-04-25 20:20 9.94845 -83.46204 36996 ft 478 kts 127°
2026-04-25 20:21 9.90699 -83.40163 37012 ft 477 kts 127°
2026-04-25 20:21 9.86725 -83.34376 37011 ft 477 kts 127°
2026-04-25 20:22 9.83367 -83.29488 37015 ft 476 kts 127°
2026-04-25 20:22 9.78744 -83.22764 37059 ft 476 kts 127°
2026-04-25 20:23 9.74743 -83.16945 37051 ft 476 kts 127°
2026-04-25 20:23 9.70715 -83.11090 36992 ft 475 kts 127°
2026-04-25 20:24 9.66661 -83.05203 36948 ft 475 kts 127°
2026-04-25 20:24 9.62555 -82.99242 36912 ft 474 kts 127°
2026-04-25 20:25 9.58505 -82.93363 36911 ft 474 kts 127°
2026-04-25 20:25 9.54372 -82.87369 36925 ft 474 kts 127°
2026-04-25 20:26 9.50744 -82.81121 36968 ft 475 kts 122°
2026-04-25 20:26 9.47215 -82.74901 37000 ft 474 kts 122°
2026-04-25 20:27 9.43647 -82.68649 36984 ft 475 kts 122°
2026-04-25 20:27 9.40134 -82.62498 36976 ft 474 kts 122°
2026-04-25 20:28 9.36639 -82.56383 36951 ft 474 kts 122°
2026-04-25 20:28 9.33412 -82.50741 36911 ft 473 kts 122°
2026-04-25 20:29 9.30032 -82.44831 36907 ft 473 kts 122°
2026-04-25 20:29 9.26522 -82.38701 36910 ft 474 kts 122°
2026-04-25 20:30 9.23027 -82.32596 36889 ft 474 kts 122°
2026-04-25 20:30 9.19438 -82.26331 36865 ft 473 kts 122°
2026-04-25 20:31 9.15878 -82.20122 36866 ft 472 kts 122°
2026-04-25 20:31 9.12557 -82.14332 36865 ft 471 kts 122°
2026-04-25 20:32 9.08975 -82.08087 36848 ft 471 kts 122°
2026-04-25 20:32 9.05388 -82.01839 36845 ft 473 kts 122°
2026-04-25 20:33 9.01784 -81.95566 36836 ft 472 kts 122°
2026-04-25 20:33 8.98857 -81.90471 36841 ft 472 kts 122°
2026-04-25 20:34 8.94591 -81.83051 36848 ft 471 kts 122°
2026-04-25 20:34 8.91054 -81.76901 36851 ft 470 kts 122°
2026-04-25 20:35 8.87509 -81.70740 36853 ft 472 kts 122°
2026-04-25 20:35 8.83946 -81.64552 36854 ft 472 kts 122°
2026-04-25 20:36 8.80304 -81.58230 36859 ft 473 kts 122°
2026-04-25 20:36 8.76719 -81.52008 36859 ft 472 kts 122°
2026-04-25 20:37 8.73129 -81.45782 36860 ft 471 kts 122°
2026-04-25 20:37 8.69539 -81.39560 36884 ft 471 kts 122°
2026-04-25 20:38 8.66023 -81.33466 36908 ft 471 kts 122°
2026-04-25 20:38 8.62590 -81.27521 36925 ft 471 kts 122°
2026-04-25 20:39 8.59044 -81.21382 36946 ft 470 kts 122°
2026-04-25 20:39 8.56092 -81.16273 36965 ft 470 kts 122°
2026-04-25 20:40 8.52015 -81.09221 36982 ft 469 kts 122°
2026-04-25 20:40 8.48508 -81.03159 36990 ft 468 kts 122°
2026-04-25 20:41 8.44985 -80.97070 36962 ft 469 kts 122°
2026-04-25 20:41 8.41365 -80.90818 36922 ft 469 kts 122°
2026-04-25 20:42 8.37797 -80.84660 36893 ft 469 kts 122°
2026-04-25 20:42 8.34165 -80.78391 36873 ft 468 kts 122°
2026-04-25 20:43 8.30591 -80.72227 36855 ft 468 kts 122°
2026-04-25 20:43 8.26987 -80.66012 36834 ft 468 kts 122°
2026-04-25 20:44 8.23426 -80.59875 36824 ft 468 kts 122°
2026-04-25 20:44 8.19857 -80.53726 36822 ft 468 kts 122°
2026-04-25 20:45 8.16210 -80.47448 36832 ft 469 kts 122°
2026-04-25 20:45 8.12690 -80.41389 36841 ft 469 kts 122°
2026-04-25 20:46 8.09016 -80.35070 36839 ft 469 kts 122°
2026-04-25 20:46 8.05514 -80.29048 36839 ft 468 kts 122°
2026-04-25 20:47 8.01850 -80.22749 36836 ft 468 kts 122°
2026-04-25 20:47 7.98228 -80.16527 36832 ft 468 kts 122°
2026-04-25 20:48 7.94578 -80.10260 36821 ft 469 kts 122°
2026-04-25 20:48 7.90974 -80.04072 36820 ft 468 kts 122°
2026-04-25 20:49 7.87331 -79.97820 36826 ft 467 kts 122°
2026-04-25 20:49 7.83698 -79.91589 36828 ft 467 kts 122°
2026-04-25 20:50 7.80130 -79.85473 36829 ft 466 kts 122°
2026-04-25 20:50 7.76535 -79.79314 36828 ft 467 kts 122°
2026-04-25 20:51 7.72912 -79.73108 36831 ft 468 kts 122°
2026-04-25 20:51 7.69317 -79.66952 36839 ft 466 kts 122°
2026-04-25 20:52 7.66305 -79.61796 36845 ft 466 kts 122°
2026-04-25 20:52 7.62107 -79.54614 36845 ft 466 kts 122°
2026-04-25 20:53 7.58502 -79.48449 36844 ft 465 kts 122°
2026-04-25 20:53 7.54899 -79.42289 36842 ft 466 kts 122°
2026-04-25 20:54 7.51318 -79.36173 36839 ft 466 kts 122°
2026-04-25 20:54 7.47814 -79.30187 36838 ft 466 kts 122°
2026-04-25 20:55 7.44159 -79.23946 36838 ft 465 kts 122°
2026-04-25 20:55 7.40561 -79.17806 36839 ft 464 kts 122°
2026-04-25 20:56 7.36876 -79.11519 36841 ft 466 kts 122°
2026-04-25 20:56 7.33291 -79.05405 36840 ft 466 kts 122°
2026-04-25 20:57 7.29631 -78.99168 36836 ft 465 kts 122°
2026-04-25 20:57 7.26023 -78.93018 36836 ft 464 kts 122°
2026-04-25 20:58 7.22332 -78.86733 36834 ft 465 kts 122°
2026-04-25 20:58 7.18702 -78.80552 36832 ft 466 kts 122°
2026-04-25 20:59 7.15046 -78.74329 36837 ft 466 kts 122°
2026-04-25 20:59 7.11416 -78.68153 36839 ft 465 kts 122°
2026-04-25 21:00 7.08948 -78.63953 36836 ft 465 kts 122°
2026-04-25 21:01 7.02319 -78.52679 36838 ft 467 kts 122°
2026-04-25 21:01 6.98670 -78.46477 36836 ft 466 kts 122°
2026-04-25 21:02 6.95044 -78.40316 36838 ft 466 kts 122°
2026-04-25 21:02 6.91406 -78.34136 36840 ft 466 kts 122°
2026-04-25 21:03 6.87953 -78.28272 36849 ft 466 kts 122°
2026-04-25 21:03 6.84277 -78.22034 36844 ft 466 kts 122°
2026-04-25 21:04 6.80215 -78.16310 36833 ft 466 kts 127°
2026-04-25 21:04 6.76002 -78.10523 36841 ft 465 kts 127°
2026-04-25 21:05 6.71829 -78.04782 36841 ft 464 kts 127°
2026-04-25 21:05 6.67601 -77.98967 36840 ft 465 kts 127°
2026-04-25 21:06 6.63491 -77.93315 36841 ft 465 kts 127°
2026-04-25 21:06 6.59359 -77.87636 36840 ft 464 kts 127°
2026-04-25 21:07 6.55218 -77.81946 36837 ft 465 kts 127°
2026-04-25 21:07 6.51154 -77.76363 36838 ft 464 kts 127°
2026-04-25 21:08 6.47083 -77.70772 36837 ft 462 kts 127°
2026-04-25 21:08 6.43133 -77.65349 36836 ft 461 kts 127°
2026-04-25 21:09 6.37774 -77.57119 36847 ft 460 kts 121°
2026-04-25 21:09 6.34303 -77.51274 36837 ft 461 kts 121°
2026-04-25 21:10 6.30853 -77.45470 36843 ft 462 kts 122°
2026-04-25 21:10 6.27346 -77.39573 36861 ft 461 kts 121°
2026-04-25 21:11 6.23832 -77.33666 36878 ft 460 kts 121°
2026-04-25 21:11 6.20369 -77.27847 36886 ft 460 kts 121°
2026-04-25 21:12 6.16849 -77.21933 36890 ft 460 kts 121°
2026-04-25 21:12 6.13947 -77.17059 36886 ft 460 kts 121°
2026-04-25 21:13 6.09860 -77.10196 36892 ft 460 kts 121°
2026-04-25 21:13 6.06375 -77.04347 36878 ft 459 kts 121°
2026-04-25 21:14 6.02946 -76.98594 36870 ft 459 kts 121°
2026-04-25 21:14 5.99545 -76.92888 36863 ft 459 kts 121°
2026-04-25 21:15 5.96131 -76.87163 36870 ft 459 kts 121°
2026-04-25 21:15 5.92787 -76.81557 36863 ft 459 kts 121°
2026-04-25 21:16 5.89452 -76.75967 36864 ft 458 kts 121°
2026-04-25 21:16 5.86074 -76.70306 36871 ft 457 kts 121°
2026-04-25 21:17 5.82602 -76.64492 36873 ft 458 kts 121°
2026-04-25 21:17 5.79110 -76.58644 36881 ft 458 kts 121°
2026-04-25 21:18 5.75640 -76.52836 36878 ft 457 kts 121°
2026-04-25 21:18 5.72234 -76.47136 36869 ft 457 kts 121°
2026-04-25 21:19 5.70578 -76.44366 36284 ft 464 kts 121°
2026-04-25 21:19 5.68991 -76.41711 35683 ft 461 kts 121°
2026-04-25 21:19 5.67463 -76.39154 35141 ft 456 kts 121°
2026-04-25 21:19 5.65901 -76.36543 34581 ft 455 kts 121°
2026-04-25 21:20 5.64292 -76.33852 34014 ft 459 kts 121°
2026-04-25 21:20 5.63213 -76.32048 33645 ft 461 kts 121°
2026-04-25 21:20 5.61016 -76.28374 32899 ft 463 kts 121°
2026-04-25 21:20 5.59466 -76.25784 32400 ft 465 kts 121°
2026-04-25 21:21 5.57848 -76.23078 31904 ft 468 kts 121°
2026-04-25 21:21 5.56231 -76.20376 31410 ft 470 kts 121°
2026-04-25 21:21 5.54650 -76.17735 30930 ft 473 kts 121°
2026-04-25 21:21 5.53103 -76.15149 30465 ft 474 kts 121°
2026-04-25 21:22 5.51460 -76.12404 29955 ft 478 kts 121°
2026-04-25 21:22 5.49847 -76.09710 29474 ft 479 kts 121°
2026-04-25 21:22 5.48319 -76.07156 29024 ft 480 kts 121°
2026-04-25 21:22 5.46791 -76.04606 28572 ft 473 kts 121°
2026-04-25 21:23 5.45224 -76.01990 28110 ft 463 kts 121°
2026-04-25 21:23 5.43670 -75.99397 27640 ft 452 kts 121°
2026-04-25 21:23 5.42186 -75.96920 27177 ft 443 kts 121°
2026-04-25 21:23 5.40739 -75.94505 26715 ft 435 kts 121°
2026-04-25 21:24 5.39340 -75.92172 26259 ft 427 kts 121°
2026-04-25 21:24 5.37969 -75.89883 25808 ft 420 kts 121°
2026-04-25 21:24 5.36624 -75.87640 25371 ft 413 kts 121°
2026-04-25 21:24 5.35278 -75.85394 25206 ft 399 kts 120°
2026-04-25 21:25 5.33967 -75.83209 25256 ft 380 kts 121°
2026-04-25 21:25 5.32697 -75.81092 25196 ft 369 kts 121°
2026-04-25 21:25 5.31387 -75.78907 25202 ft 368 kts 121°
2026-04-25 21:25 5.30104 -75.76769 25198 ft 370 kts 121°
2026-04-25 21:26 5.28833 -75.74648 25178 ft 373 kts 121°
2026-04-25 21:26 5.27568 -75.72537 25168 ft 373 kts 121°
2026-04-25 21:26 5.26241 -75.70326 25167 ft 373 kts 121°
2026-04-25 21:26 5.24971 -75.68210 25162 ft 373 kts 120°
2026-04-25 21:27 5.23719 -75.66121 25169 ft 373 kts 120°
2026-04-25 21:27 5.22428 -75.63969 25182 ft 374 kts 121°
2026-04-25 21:27 5.21138 -75.61821 25196 ft 374 kts 120°
2026-04-25 21:27 5.19848 -75.59669 25204 ft 373 kts 120°
2026-04-25 21:28 5.18562 -75.57528 25210 ft 373 kts 121°
2026-04-25 21:28 5.17296 -75.55418 25215 ft 372 kts 120°
2026-04-25 21:28 5.15978 -75.53223 24785 ft 380 kts 120°
2026-04-25 21:28 5.14690 -75.51079 24297 ft 379 kts 120°
2026-04-25 21:29 5.13406 -75.48975 23846 ft 376 kts 123°
2026-04-25 21:29 5.11862 -75.46988 23397 ft 373 kts 129°
2026-04-25 21:29 5.10269 -75.45025 22926 ft 370 kts 127°
2026-04-25 21:29 5.08693 -75.43049 22458 ft 368 kts 127°
2026-04-25 21:30 5.07140 -75.41097 22004 ft 366 kts 127°
2026-04-25 21:30 5.05589 -75.39141 21551 ft 363 kts 127°
2026-04-25 21:30 5.04038 -75.37185 21115 ft 361 kts 127°
2026-04-25 21:30 5.03049 -75.35938 20830 ft 360 kts 128°
2026-04-25 21:31 5.01052 -75.33418 20240 ft 357 kts 128°
2026-04-25 21:31 4.99575 -75.31557 19806 ft 356 kts 128°
2026-04-25 21:31 4.98055 -75.29640 19385 ft 354 kts 128°
2026-04-25 21:31 4.96513 -75.27696 18952 ft 352 kts 128°
2026-04-25 21:32 4.94988 -75.25774 18514 ft 351 kts 129°
2026-04-25 21:32 4.93511 -75.23911 18075 ft 349 kts 129°
2026-04-25 21:32 4.92112 -75.22148 17654 ft 348 kts 129°
2026-04-25 21:32 4.90634 -75.20286 17127 ft 349 kts 129°
2026-04-25 21:33 4.89089 -75.18338 16986 ft 335 kts 129°
2026-04-25 21:33 4.87633 -75.16505 17006 ft 334 kts 129°
2026-04-25 21:33 4.86163 -75.14651 16962 ft 333 kts 129°
2026-04-25 21:33 4.84687 -75.12791 16953 ft 334 kts 129°
2026-04-25 21:34 4.83475 -75.10819 16894 ft 334 kts 111°
2026-04-25 21:34 4.82967 -75.08607 16895 ft 333 kts 98°
2026-04-25 21:34 4.82588 -75.06350 16877 ft 333 kts 101°
2026-04-25 21:34 4.82139 -75.04047 16834 ft 333 kts 101°
2026-04-25 21:35 4.81691 -75.01854 16783 ft 333 kts 102°
2026-04-25 21:35 4.81234 -74.99661 16778 ft 333 kts 102°
2026-04-25 21:35 4.80878 -74.97970 16755 ft 334 kts 102°
2026-04-25 21:35 4.80401 -74.95712 16769 ft 333 kts 102°
2026-04-25 21:36 4.79929 -74.93484 16756 ft 333 kts 102°
2026-04-25 21:36 4.79429 -74.91130 16742 ft 334 kts 102°
2026-04-25 21:36 4.78930 -74.88779 16778 ft 332 kts 102°
2026-04-25 21:36 4.78455 -74.86464 16734 ft 333 kts 98°
2026-04-25 21:37 4.78496 -74.84171 16716 ft 329 kts 77°
2026-04-25 21:37 4.79029 -74.82694 16740 ft 328 kts 62°
2026-04-25 21:37 4.81178 -74.80388 16708 ft 325 kts 31°
2026-04-25 21:37 4.83411 -74.79603 16718 ft 323 kts
2026-04-25 21:38 4.85700 -74.79751 16758 ft 323 kts 347°
2026-04-25 21:38 4.87865 -74.80295 16740 ft 323 kts 348°
2026-04-25 21:38 4.90090 -74.80717 16726 ft 324 kts 351°
2026-04-25 21:38 4.92403 -74.81097 16723 ft 322 kts 352°
2026-04-25 21:39 4.94596 -74.81379 16741 ft 322 kts 359°
2026-04-25 21:39 4.96790 -74.81023 16758 ft 324 kts 19°
2026-04-25 21:39 4.98945 -74.80248 16727 ft 324 kts 19°
2026-04-25 21:39 5.01140 -74.79519 16699 ft 324 kts 18°
2026-04-25 21:40 5.03318 -74.78816 16690 ft 323 kts 18°
2026-04-25 21:40 5.05468 -74.78133 16707 ft 324 kts 18°
2026-04-25 21:40 5.07653 -74.77441 16708 ft 316 kts 18°
2026-04-25 21:40 5.09780 -74.76772 16697 ft 312 kts 18°
2026-04-25 21:41 5.11846 -74.75922 16706 ft 310 kts 33°
2026-04-25 21:41 5.13491 -74.74444 16707 ft 313 kts 46°
2026-04-25 21:41 5.15076 -74.72846 16687 ft 315 kts 44°
2026-04-25 21:41 5.16727 -74.71247 16673 ft 314 kts 44°
2026-04-25 21:42 5.18338 -74.69705 16689 ft 314 kts 44°
2026-04-25 21:42 5.19969 -74.68154 16704 ft 323 kts 44°
2026-04-25 21:42 5.21682 -74.66528 16708 ft 326 kts 43°
2026-04-25 21:42 5.23320 -74.64978 16717 ft 326 kts 43°
2026-04-25 21:43 5.24957 -74.63305 16733 ft 327 kts 53°
2026-04-25 21:43 5.25972 -74.61262 16767 ft 330 kts 71°
2026-04-25 21:43 5.26678 -74.59081 16716 ft 330 kts 71°
2026-04-25 21:43 5.27455 -74.56898 16710 ft 327 kts 70°
2026-04-25 21:44 5.28255 -74.54709 16785 ft 328 kts 70°
2026-04-25 21:44 5.29046 -74.52578 16803 ft 329 kts 70°
2026-04-25 21:44 5.30659 -74.48252 16768 ft 328 kts 70°
2026-04-25 21:45 5.31114 -74.46207 16836 ft 329 kts 88°
2026-04-25 21:45 5.31029 -74.44729 16864 ft 330 kts 97°
2026-04-25 21:45 5.30693 -74.41796 16828 ft 331 kts 95°
2026-04-25 21:45 5.30488 -74.39529 16839 ft 329 kts 95°
2026-04-25 21:46 5.30295 -74.37251 16858 ft 326 kts 94°
2026-04-25 21:46 5.29921 -74.35030 16844 ft 313 kts 110°
2026-04-25 21:46 5.28793 -74.33174 16591 ft 310 kts 135°
2026-04-25 21:46 5.26903 -74.31954 16279 ft 306 kts 163°
2026-04-25 21:47 5.24660 -74.31718 15985 ft 304 kts 188°
2026-04-25 21:47 5.22506 -74.32192 15679 ft 301 kts 197°
2026-04-25 21:47 5.20336 -74.32781 15329 ft 301 kts 198°
2026-04-25 21:47 5.18179 -74.33405 14953 ft 300 kts 198°
2026-04-25 21:48 5.15999 -74.34051 14580 ft 299 kts 199°
2026-04-25 21:48 5.13915 -74.34678 14213 ft 297 kts 198°
2026-04-25 21:48 5.11871 -74.35294 13862 ft 296 kts 199°
2026-04-25 21:48 5.09915 -74.35890 13511 ft 295 kts 199°
2026-04-25 21:49 5.07904 -74.36503 13159 ft 294 kts 199°
2026-04-25 21:49 5.05889 -74.37116 12804 ft 294 kts 199°
2026-04-25 21:49 5.03818 -74.37749 12462 ft 293 kts 199°
2026-04-25 21:49 5.01766 -74.38375 12082 ft 292 kts 199°
2026-04-25 21:50 4.99758 -74.38986 11959 ft 281 kts 199°
2026-04-25 21:50 4.97882 -74.39558 11984 ft 274 kts 199°
2026-04-25 21:50 4.95969 -74.40143 11955 ft 271 kts 199°
2026-04-25 21:50 4.94688 -74.40533 11941 ft 270 kts 199°
2026-04-25 21:51 4.92144 -74.41041 11955 ft 270 kts 178°
2026-04-25 21:51 4.90243 -74.40453 11936 ft 268 kts 148°
2026-04-25 21:51 4.88909 -74.39108 11987 ft 272 kts 121°
2026-04-25 21:51 4.88184 -74.37507 11996 ft 257 kts 116°
2026-04-25 21:52 4.87334 -74.36102 12019 ft 250 kts 127°
2026-04-25 21:52 4.86377 -74.34759 12017 ft 251 kts 127°
2026-04-25 21:52 4.85348 -74.33311 11728 ft 253 kts 127°
2026-04-25 21:52 4.84295 -74.31947 11407 ft 248 kts 137°
2026-04-25 21:53 4.82962 -74.30856 11104 ft 242 kts 144°
2026-04-25 21:53 4.81712 -74.29816 10870 ft 234 kts 142°
2026-04-25 21:53 4.80471 -74.28811 10774 ft 217 kts 142°
2026-04-25 21:53 4.79435 -74.27763 10501 ft 213 kts 134°
2026-04-25 21:54 4.78533 -74.26678 10239 ft 201 kts 133°
2026-04-25 21:54 4.77710 -74.25639 10061 ft 184 kts 133°
2026-04-25 21:54 4.76945 -74.24648 10033 ft 171 kts 132°
2026-04-25 21:54 4.76209 -74.23695 9960 ft 180 kts 132°
2026-04-25 21:55 4.75474 -74.22728 9691 ft 175 kts 132°
2026-04-25 21:55 4.74733 -74.21751 9479 ft 170 kts 132°
2026-04-25 21:55 4.74032 -74.20828 9256 ft 168 kts 131°
2026-04-25 21:55 4.73309 -74.19881 9064 ft 170 kts 132°
2026-04-25 21:56 4.72600 -74.18947 8851 ft 172 kts 131°
2026-04-25 21:56 4.72138 -74.18337 8723 ft 167 kts 131°
2026-04-25 21:56 4.71178 -74.17088 8437 ft 170 kts 131°
2026-04-25 21:56 4.70489 -74.16178 8365 ft 158 kts 129°
2026-04-25 21:57 4.69936 -74.15443 8374 ft 107 kts 127°
2026-04-25 21:57 4.69727 -74.15089 8374 ft 40 kts 101°
2026-04-25 21:57 4.69707 -74.14945 8374 ft 0 kts 98°
2026-04-25 21:58 4.69707 -74.14944 8374 ft 0 kts 98°
2026-04-25 21:58 4.69704 -74.14909 8375 ft 8 kts 90°
2026-04-25 21:58 4.69726 -74.14845 8375 ft 11 kts 56°
2026-04-25 21:59 4.69785 -74.14788 8375 ft 12 kts 39°
2026-04-25 21:59 4.69857 -74.14733 8376 ft 13 kts 37°
2026-04-25 21:59 4.69937 -74.14672 8376 ft 14 kts 37°
2026-04-25 22:00 4.70023 -74.14556 8377 ft 9 kts 119°
2026-04-25 22:00 4.69984 -74.14500 8377 ft 10 kts 124°
2026-04-25 22:00 4.69974 -74.14443 8377 ft 8 kts 71°
2026-04-25 22:00 4.70002 -74.14401 8377 ft 0 kts 45°
2026-04-25 22:01 4.70013 -74.14393 8377 ft 2 kts 36°
2026-04-25 22:01 4.70022 -74.14386 8377 ft 0 kts 36°